TimeEST,TemperatureF,Dew PointF,Humidity,Sea Level PressureIn,VisibilityMPH,Wind Direction,Wind SpeedMPH,Gust SpeedMPH,PrecipitationIn,Events,Conditions,WindDirDegrees,DateUTC
12:15 AM,69.8,62.6,78,29.89,10.0,South,5.8,-,N/A,,Overcast,190,2012-12-11 05:15:00
12:35 AM,68.0,62.6,83,29.89,8.0,SSW,4.6,-,N/A,,Overcast,200,2012-12-11 05:35:00
12:55 AM,66.2,62.6,88,29.89,5.0,SSW,5.8,-,N/A,,Mostly Cloudy,210,2012-12-11 05:55:00
1:15 AM,66.2,62.6,88,29.88,1.8,SSW,4.6,-,N/A,,Mostly Cloudy,210,2012-12-11 06:15:00
1:35 AM,64.4,60.8,88,29.87,0.5,SSW,4.6,-,N/A,,Overcast,210,2012-12-11 06:35:00
1:55 AM,66.2,62.6,88,29.88,0.5,SW,4.6,-,N/A,,Overcast,220,2012-12-11 06:55:00
2:15 AM,66.2,62.6,88,29.88,0.5,South,3.5,-,N/A,,Overcast,170,2012-12-11 07:15:00
2:35 AM,64.4,60.8,88,29.89,5.0,South,5.8,-,N/A,,Partly Cloudy,180,2012-12-11 07:35:00
2:55 AM,66.2,60.8,83,29.89,5.0,South,4.6,-,N/A,,Clear,180,2012-12-11 07:55:00
3:15 AM,66.2,60.8,83,29.90,8.0,SSE,3.5,-,N/A,,Partly Cloudy,160,2012-12-11 08:15:00
3:35 AM,66.2,60.8,83,29.90,9.0,South,5.8,-,N/A,,Mostly Cloudy,190,2012-12-11 08:35:00
3:55 AM,66.2,60.8,83,29.90,5.0,SSW,9.2,-,N/A,,Overcast,200,2012-12-11 08:55:00
4:15 AM,66.2,60.8,83,29.90,3.0,SSW,5.8,-,N/A,,Overcast,210,2012-12-11 09:15:00
4:35 AM,66.2,60.8,83,29.90,3.0,SW,6.9,-,N/A,,Overcast,220,2012-12-11 09:35:00
4:55 AM,66.2,60.8,83,29.91,1.0,SSW,6.9,-,N/A,,Overcast,200,2012-12-11 09:55:00
5:15 AM,66.2,60.8,83,29.91,1.0,South,6.9,-,N/A,,Overcast,190,2012-12-11 10:15:00
5:35 AM,66.2,60.8,83,29.91,0.8,SSW,5.8,-,N/A,,Overcast,200,2012-12-11 10:35:00
5:55 AM,66.2,60.8,83,29.92,0.8,SSW,5.8,-,N/A,,Overcast,200,2012-12-11 10:55:00
6:15 AM,64.4,60.8,88,29.91,0.5,South,3.5,-,N/A,,Overcast,180,2012-12-11 11:15:00
6:35 AM,64.4,60.8,88,29.92,0.5,South,4.6,-,N/A,,Overcast,170,2012-12-11 11:35:00
6:50 AM,64.4,60.8,88,29.92,0.2,South,5.8,-,N/A,Fog,Fog,170,2012-12-11 11:50:00
7:50 AM,64.4,59.0,83,29.96,0.2,South,4.6,-,N/A,Fog,Fog,180,2012-12-11 12:50:00
8:50 AM,66.2,60.8,83,29.97,1.0,South,4.6,-,N/A,,Overcast,180,2012-12-11 13:50:00
9:50 AM,68.0,60.8,78,29.99,5.0,South,4.6,-,N/A,,Overcast,190,2012-12-11 14:50:00
10:50 AM,71.6,62.6,73,30.00,10.0,SSW,6.9,-,N/A,,Overcast,200,2012-12-11 15:50:00
11:22 AM,71.6,62.6,73,30.01,10.0,SW,8.1,-,N/A,,Overcast,230,2012-12-11 16:22:00
11:50 AM,73.4,62.6,69,30.00,10.0,WSW,5.8,-,N/A,,Overcast,250,2012-12-11 16:50:00
12:50 PM,73.4,62.6,69,29.98,10.0,WNW,5.8,-,N/A,,Mostly Cloudy,290,2012-12-11 17:50:00
1:50 PM,75.2,62.6,65,29.96,10.0,Calm,Calm,-,N/A,,Mostly Cloudy,0,2012-12-11 18:50:00
2:50 PM,75.2,62.6,65,29.96,10.0,West,3.5,-,N/A,,Mostly Cloudy,280,2012-12-11 19:50:00
3:50 PM,77.0,62.6,61,29.94,10.0,Calm,Calm,-,N/A,,Mostly Cloudy,0,2012-12-11 20:50:00
4:50 PM,77.0,62.6,61,29.96,10.0,Calm,Calm,-,N/A,,Mostly Cloudy,0,2012-12-11 21:50:00
5:50 PM,73.4,62.6,69,29.97,10.0,Calm,Calm,-,N/A,,Mostly Cloudy,0,2012-12-11 22:50:00
6:50 PM,73.4,62.6,69,29.98,10.0,Calm,Calm,-,N/A,,Mostly Cloudy,0,2012-12-11 23:50:00
7:55 PM,71.6,62.6,73,29.97,10.0,Calm,Calm,-,N/A,,Clear,0,2012-12-12 00:55:00
8:15 PM,69.8,60.8,73,29.99,10.0,Calm,Calm,-,N/A,,Clear,0,2012-12-12 01:15:00
8:35 PM,69.8,62.6,78,30.01,10.0,Calm,Calm,-,N/A,,Clear,0,2012-12-12 01:35:00
8:55 PM,69.8,62.6,78,30.02,10.0,Calm,Calm,-,N/A,,Scattered Clouds,0,2012-12-12 01:55:00
9:15 PM,69.8,62.6,78,30.03,10.0,Calm,Calm,-,N/A,,Overcast,0,2012-12-12 02:15:00
9:35 PM,69.8,62.6,78,30.03,10.0,Calm,Calm,-,N/A,,Overcast,0,2012-12-12 02:35:00
9:55 PM,69.8,62.6,78,30.04,10.0,Calm,Calm,-,N/A,,Overcast,0,2012-12-12 02:55:00
10:15 PM,69.8,62.6,78,30.04,10.0,Calm,Calm,-,N/A,,Overcast,0,2012-12-12 03:15:00
10:35 PM,71.6,62.6,73,30.04,10.0,Calm,Calm,-,N/A,,Mostly Cloudy,0,2012-12-12 03:35:00
10:55 PM,71.6,62.6,73,30.04,7.0,Calm,Calm,-,N/A,,Scattered Clouds,0,2012-12-12 03:55:00
11:15 PM,69.8,62.6,78,30.03,8.0,East,4.6,-,N/A,,Mostly Cloudy,100,2012-12-12 04:15:00
11:35 PM,69.8,62.6,78,30.03,9.0,Calm,Calm,-,0.01,,Mostly Cloudy,0,2012-12-12 04:35:00
11:55 PM,69.8,62.6,78,30.03,10.0,Calm,Calm,-,0.01,,Overcast,0,2012-12-12 04:55:00